Regional Weather Roundup
Issued by NWS Upton, NY

Current Version | Previous Version | Graphics & Text | Print | Product List | Glossary Off
Versions: 1 2 3 4 5 6 7 8 9 10 11 12 13 14 15 16 17 18 19 20 21 22 23 24 25 26 27 28 29 30 31 32 33 34 35 36 37 38 39 40 41 42 43 44 45 46 47 48 49 50

000
ASUS41 KOKX 210005
RWROKX

REGIONAL WEATHER ROUNDUP
NATIONAL WEATHER SERVICE NEW YORK NY
700 PM EST SAT DEC 20 2014

NOTE: "FAIR" INDICATES FEW OR NO CLOUDS BELOW 12,000 FEET WITH NO
SIGNIFICANT WEATHER AND/OR OBSTRUCTIONS TO VISIBILITY.

NYZ071-072-176-178-NJZ106-104-210100-
NEW YORK CITY METRO AREA


CITY           SKY/WX    TMP DP  RH WIND       PRES   REMARKS
CENTRAL PARK   CLOUDY    32  19  58 VRB7      30.30S WCI  26
LAGUARDIA APRT CLOUDY    33  21  61 NE8       30.29R WCI  26
KENNEDY INTL   CLOUDY    34  21  59 NE3       30.30S
NEWARK/LIBERTY CLOUDY    33  21  61 NW8       30.29S WCI  26
BRNX BOT. GARD   N/A    N/A N/A N/A N5        30.30S
TETERBORO      CLOUDY    33  20  58 N5        30.29R WCI  29
$$

NYZ177-179-078>081-210100-
LONG ISLAND NEW YORK

CITY           SKY/WX    TMP DP  RH WIND       PRES   REMARKS
FARMINGDALE    CLOUDY    33  21  61 N3        30.28S
ISLIP          CLOUDY    33  23  66 CALM      30.27R
SHIRLEY        CLOUDY    32  25  75 NW3       30.29R
WESTHAMPTON    CLOUDY    32  26  78 W3        30.29S
MONTAUK POINT    N/A     38  29  70 N7        30.28R WCI  33
$$

NYZ052-065-067-210100-
HUDSON VALLEY

CITY           SKY/WX    TMP DP  RH WIND       PRES   REMARKS
WHITE PLAINS   CLOUDY    30  20  66 N7        30.26S WCI  23
NEWBURGH       CLOUDY    28  23  80 VRB5      30.29  WCI  23
MONTGOMERY     CLOUDY    29  22  75 N7        30.28R WCI  22
POUGHKEEPSIE   CLOUDY    30  20  66 CALM      30.30R
ALBANY         CLOUDY    29  18  63 CALM      30.32R
$$

NJZ001-105-106-008-010-013-015-019>022-104-210100-
NEW JERSEY

CITY           SKY/WX    TMP DP  RH WIND       PRES   REMARKS
NEWARK/LIBERTY CLOUDY    33  21  61 NW8       30.29S WCI  26
TETERBORO      CLOUDY    33  20  58 N5        30.29R WCI  29
CALDWELL       CLOUDY    32  20  61 CALM      30.29S
MORRISTOWN     CLOUDY    32  23  69 NW3       30.30R
SOMERVILLE     CLOUDY    32  20  61 N3        30.28S
SUSSEX         CLOUDY    30  20  66 CALM      30.27R
ANDOVER          N/A     29  20  69 CALM      30.27R
TRENTON        CLOUDY    31  20  63 CALM      30.28S
MILLVILLE      PTCLDY    26  21  81 CALM      30.29R
ATLANTIC CITY  PTCLDY    30  20  66 N3        30.29R
WRIGHTSTOWN    CLOUDY    31  22  69 N3        30.27R
TOMS RIVER     CLOUDY    32  21  64 NW3       30.29S
BELMAR         MOCLDY    30  18  59 NW7       30.28S WCI  23
$$

PAZ047>061-062-071-210100-
EASTERN PENNSYLVANIA

CITY           SKY/WX    TMP DP  RH WIND       PRES   REMARKS
PHILADELPHIA   CLOUDY    35  21  56 N5        30.30R WCI  31
ALLENTOWN      CLOUDY    33  23  66 CALM      30.27S
SCRANTON       CLOUDY    30  20  66 NW6       30.24S WCI  24
$$

CTZ002-004>006-009-010-012-RIZ004-006-007-MAZ004-011-015-210100-
SOUTHERN NEW ENGLAND
 IN CT

CITY           SKY/WX    TMP DP  RH WIND       PRES   REMARKS
BRADLEY INTL   CLOUDY    31  21  66 CALM      30.28R
HARTFORD       CLOUDY    31  21  66 VRB3      30.30R
DANBURY        CLOUDY    29  20  69 CALM      30.28R
WTRBRY/OXFORD  CLOUDY    28  19  69 CALM      30.26R
BRIDGEPORT     CLOUDY    32  27  81 N7        30.29R WCI  26
MERIDEN        CLOUDY    30  23  75 CALM      30.29R
NEW HAVEN      CLOUDY    34  24  67 CALM      30.29R
CHESTER        CLOUDY    32  25  74 CALM      30.27R
GROTON         CLOUDY    34  26  72 N6        30.27R WCI  29
WILLIMANTIC    CLOUDY    34  25  69 N3        30.29R

 IN RI

CITY           SKY/WX    TMP DP  RH WIND       PRES   REMARKS
PROVIDENCE     LGT SNOW  32  26  78 N8        30.29R WCI  25
BLOCK ISLAND   CLOUDY    36  28  75 NE9       30.25R WCI  29
WESTERLY       CLOUDY    34  27  75 N8        30.27R WCI  27

 IN MA

CITY           SKY/WX    TMP DP  RH WIND       PRES   REMARKS
BOSTON         FLURRIES  34  30  85 N8        30.30R WCI  27
WORCESTER      CLOUDY    29  22  75 NE6       30.25R WCI  23
WESTFIELD      CLOUDY    32  22  66 N3        30.28R
PROVINCETOWN   CLOUDY    39  32  75 NE18      30.27R WCI  30
NANTUCKET      LGT RAIN  40  36  86 NW7       30.24S
$$

ANZ330-335-338-340-345-350-353-355-210100-
COASTAL MARINE OBSERVATIONS


STATION/POSITION TIME  SKY/WX   TEMP    WIND        PRES    VSBY  WAVE
                                AIR SEA DIR/SP/G                  HT/PER
                 (UTC)          (F)     (DEG/KT/KT) (MB)    (MI)  (FT/S)
NY HARB ENTRANCE 0000            34 46  350/  6/  8 1025.9          1
4S FIRE IS       0000               45                N/A           1/11
20S FIRE ISLAND  2300            35 49              1025.7          1/11
23SW MTP         0000                                 N/A           2/ 5
HUDSON CANYON    0000            39 54  340/ 12/ 16 1024.1          2/ 4
EXECUTION ROCKS  0000            33 41  360/  6/  8   N/A
WESTERN LI SOUND 2300            33     350/  6/ 10   N/A           0
CENTRAL LI SOUND 0000            34 44  340/  6/  8   N/A           0
EASTERN LI SOUND NOT AVBL
ROBBINS REEF     0000            33        CALM     1024.4
$$


>>>>>>>>>>>>>>>>>>>>>>>>>>>> KEY <<<<<<<<<<<<<<<<<<<<<<<<<<<
>                                                          <
>     SKY/WX - SKY CONDITION/PRESENT WEATHER               <
>     TMP    - TEMPERATURE IN FAHRENHEIT                   <
>     DP     - DEWPOINT IN FAHRENHEIT                      <
>     RH     - RELATIVE HUMIDITY IN PERCENT                <
>     WIND   - DIRECTION AND SPEED IN MPH                  <
>     PRES   - MEAN SEA LEVEL PRESSURE IN INCHES OF HG     <
>     WCI    - WIND CHILL INDEX                            <
>     VSB    - VISIBILITY IN MILES                         <
>     HX     - HEAT INDEX                                  <
>     TC     - TEMPERATURE IN CELSIUS                      <
>     VRB    - VARIABLE WIND DIRECTION                     <
>                                                          <
>>>>>>>>>>>>>>>>>>>>>>>>>>>> KEY <<<<<<<<<<<<<<<<<<<<<<<<<<<





USA.gov is the U.S. government's official web portal to all federal, state and local government web resources and services.